Flag for U.S.A. Weather past 2 weeks in Lakeland, Florida, U.S.A.

Now
75 °F

Partly sunny.


Feels Like: 77 °F
Forecast: 62 / 75 °F
Wind: 6 mph from Southwest

Location: Lakeland Regional


UV Index: 0 (Low)

Visibility: 12 mi


Pressure: 29.95 "Hg

Humidity: 69%

Dew point: 64 °F

Location of LakelandLocation

Historic Weather in Lakeland

°F

Lakeland temperature yesterday

Maximum temperature yesterday: 81 °F (at 1:50 PM)
Minimum temperature yesterday: 66 °F (at 9:51 PM)
Average temperature yesterday: 70 °F

Past Weeks' High & Low Weather Summary

 TemperatureHumidityPressure
High90 °F (Apr 7, 2:50 PM)100% (Apr 4, 7:50 AM)30.30 "Hg (Apr 4, 7:50 AM)
Low52 °F (Apr 16, 7:50 AM)30% (Apr 10, 2:45 PM)29.75 "Hg (Apr 8, 2:54 PM)
Average68 °F76%30.04 "Hg
* Reported Apr 4 7:50 AM — Apr 19 7:50 AM, Lakeland, Weather by CustomWeather, © 2014

Note: Actual official high and low records may vary slightly from our data, if they occured in-between our weather recording intervals... More about our weather records

Advertising

Historic Weather Conditions — Data for Previous 24 hours

 ConditionsComfort  
Time TempWeatherWind HumidityBarometerVisibility
7:50 AM
Apr 19
66 °FPassing clouds.5 mph100%29.93 "Hg7 mi
6:50 AM66 °FPartly cloudy.6 mph100%29.91 "Hg7 mi
5:50 AM68 °FPartly cloudy.6 mph100%29.91 "Hg7 mi
5:35 AM66 °FMostly cloudy.7 mph100%29.90 "Hg10 mi
5:15 AM64 °FPartly cloudy.5 mph100%29.89 "Hg7 mi
4:55 AM64 °FFog.5 mph100%29.89 "Hg5 mi
4:35 AM64 °FClear.3 mph100%29.89 "Hg7 mi
4:15 AM64 °FClear.3 mph100%29.89 "Hg10 mi
3:55 AM66 °FClear.No wind100%29.90 "Hg10 mi
3:35 AM66 °FClear.5 mph100%29.90 "Hg10 mi
3:15 AM66 °FPassing clouds.6 mph100%29.90 "Hg10 mi
2:55 AM66 °FPassing clouds.5 mph100%29.92 "Hg10 mi
2:35 AM66 °FClear.6 mph100%29.93 "Hg10 mi
2:15 AM66 °FPassing clouds.5 mph100%29.93 "Hg7 mi
1:55 AM64 °FFog.No wind100%29.93 "Hg5 mi
1:35 AM64 °FPassing clouds.No wind100%29.94 "Hg7 mi
1:15 AM64 °FClear.3 mph100%29.94 "Hg10 mi
12:55 AM64 °FPassing clouds.3 mph100%29.94 "Hg10 mi
12:15 AM64 °FPassing clouds.No wind100%29.95 "Hg10 mi
11:55 PM
Apr 18
66 °FPartly cloudy.No wind100%29.95 "Hg10 mi
11:35 PM66 °FPassing clouds.No wind100%29.95 "Hg10 mi
11:15 PM66 °FPassing clouds.No wind100%29.96 "Hg10 mi
10:55 PM66 °FPassing clouds.5 mph100%29.96 "Hg10 mi
10:35 PM66 °FOvercast.5 mph100%29.95 "Hg7 mi
10:15 PM66 °FPassing clouds.No wind100%29.96 "Hg10 mi
9:51 PM66 °FPartly cloudy.No wind100%29.96 "Hg10 mi
8:55 PM68 °FPartly cloudy.No wind94%29.94 "Hg10 mi
7:45 PM70 °FBroken clouds.7 mph88%29.93 "Hg10 mi
6:50 PM70 °FMore clouds than sun.No wind88%29.96 "Hg10 mi
5:45 PM68 °FBroken clouds.No wind94%29.97 "Hg10 mi
4:54 PM68 °FLight rain. Cloudy.9 mph94%29.99 "Hg7 mi
3:55 PM68 °FLight rain. Cloudy.9 mph94%30.01 "Hg7 mi
2:58 PM81 °FCloudy.12 mph58%29.98 "Hg10 mi
1:50 PM81 °FBroken clouds.14 mph62%30.01 "Hg10 mi
12:50 PM79 °FMore clouds than sun.7 mph65%30.02 "Hg12 mi
11:50 AM77 °FMostly cloudy.15 mph79%30.03 "Hg12 mi
10:50 AM75 °FMostly cloudy.12 mph83%30.05 "Hg12 mi
9:50 AM73 °FMostly cloudy.14 mph89%30.04 "Hg12 mi
Weather by CustomWeather, © 2014

See weather overview